Weather History for HESN - February, 2013

Change the Weather History Date:

Monday, February 4, 2013

  Actual Average Record
Temperature  
Mean Temperature 72 °F -  
Max Temperature 88 °F 76 °F 95 °F (2011)
Min Temperature 55 °F 53 °F 42 °F (2003)
Cooling Degree Days 6    
Growing Degree Days 22 (Base 50)    
Moisture  
Dew Point 47 °F    
Average Humidity 43    
Maximum Humidity 77    
Minimum Humidity 15    
Precipitation  
Precipitation 0.00 in 0.00 in - ()
Sea Level Pressure  
Sea Level Pressure 30.05 in    
Wind  
Wind Speed 5 mph ()    
Max Wind Speed 14 mph    
Max Gust Speed -    
Visibility 6.0 miles    
Events      
Averages and records for this station are not official NWS values.
T = Trace of Precipitation, MM = Missing Value Source: Averaged Metar Reports

Daily Weather History Graph

Daily Weather History Graph

Search for Another Location

Airport or City:

Trip Planner

Search our weather history database for the weather conditions in past years. The results will help you decide how hot, cold, wet, or windy it might be!

Date:

Astronomy

Feb. 04, 2013 Rise Set
Actual Time 6:28 AM EET 5:37 PM EET
Civil Twilight 6:04 AM EET 6:00 PM EET
Nautical Twilight 5:37 AM EET 6:27 PM EET
Astronomical Twilight 5:11 AM EET 6:54 PM EET
Moon 12:35 AM EET (2/4) 11:51 AM EET (2/4)
Length of Visible Light 11h 55m
Length of Day
11h 08m
Last Quarter, 41% of the Moon is Illuminated
Feb 4
Last Quarter
Feb 10
New
Feb 17
First Quarter
Feb 25
Full
Mar 4
Last Quarter

Hourly Weather History & Observations

Time (EET) Temp. Dew Point Humidity Pressure Visibility Wind Dir Wind Speed Gust Speed Precip Events Conditions
12:00 AM 66.2 °F 48.2 °F 52% 30.12 in - NE 8.1 mph - N/A   Clear
1:00 AM 64.4 °F 48.2 °F 56% 30.12 in - NE 8.1 mph - N/A   Clear
2:00 AM 62 °F 48 °F 49% 30.14 in 6 mi NE 6.9 mph - -  
2:00 AM 60.8 °F 48.2 °F 63% 30.12 in - NE 6.9 mph - N/A   Clear
3:00 AM 59.0 °F 48.2 °F 67% 30.12 in - NNE 5.8 mph - N/A   Clear
4:00 AM 57.2 °F 46.4 °F 67% 30.12 in - Calm Calm - N/A   Clear
5:00 AM 57.2 °F 46.4 °F 67% 30.12 in - North 5.8 mph - N/A   Clear
6:00 AM 55.4 °F 48.2 °F 77% 30.12 in - NNE 5.8 mph - N/A   Clear
7:00 AM 59.0 °F 48.2 °F 67% 30.12 in - North 4.6 mph - N/A   Clear
8:00 AM 58 °F 47 °F 59% 30.14 in 6 mi North 4.6 mph - -  
9:00 AM 62.6 °F 48.2 °F 59% 30.12 in - North 5.8 mph - N/A   Clear
10:00 AM 68.0 °F 48.2 °F 49% 30.12 in - NNE 8.1 mph - N/A   Clear
10:19 AM 68.0 °F 48.2 °F 49% 30.12 in - NNE 8.1 mph - N/A   Clear
11:00 AM 77.0 °F 42.8 °F 29% 30.09 in - East 6.9 mph - N/A   Clear
1:00 PM 84.2 °F 44.6 °F 25% 30.01 in - East 13.8 mph - N/A   Clear
2:00 PM 86 °F 46 °F 15% 29.95 in 6 mi East 11.5 mph - -  
2:00 PM 86.0 °F 46.4 °F 25% 29.98 in - East 11.5 mph - N/A   Clear
3:00 PM 87.8 °F 48.2 °F 25% 29.98 in - ESE 6.9 mph - N/A   Clear
4:00 PM 87.8 °F 46.4 °F 24% 29.95 in - ESE 4.6 mph - N/A   Clear
5:00 PM 87.8 °F 48.2 °F 25% 29.95 in - Calm Calm - N/A   Clear
6:00 PM 82.4 °F 48.2 °F 30% 29.95 in - Calm Calm - N/A   Clear
7:00 PM 80.6 °F 46.4 °F 30% 29.98 in - Calm Calm - N/A   Clear
8:00 PM 80 °F 47 °F 21% 29.99 in 6 mi Calm Calm - -  
8:00 PM 78.8 °F 46.4 °F 32% 30.01 in - Calm Calm - N/A   Clear
9:00 PM 75.2 °F 46.4 °F 36% 29.98 in - SE 6.9 mph - N/A   Clear
10:00 PM 73.4 °F 39.2 °F 29% 30.01 in - East 4.6 mph - N/A   Clear
11:00 PM 73.4 °F 41.0 °F 31% 30.01 in - NNE 4.6 mph - N/A   Clear